Wind_Speed
26 26 25 26 26 27 28 27 25 25 24 24 24 24 24 23 23 24 23 23 24 25 25 25 26 27 28 28 28 27 27 27 26 26 27 27 27 28 27 28 28 27 27
26 26 26 26 27 27 28 28 27 25 25 25 25 24 25 24 24 24 23 23 24 25 25 25 25 26 28 29 28 28 28 28 27 27 28 28 28 28 28 28 29 28 28
27 26 26 26 27 28 28 27 26 27 26 26 26 26 26 26 25 25 25 24 25 26 26 27 27 27 28 29 29 28 28 29 29 28 28 29 29 29 29 29 30 29 29
27 27 26 26 26 26 26 25 25 26 27 27 26 27 27 26 26 26 25 26 26 26 26 26 27 27 27 28 29 29 28 28 28 29 29 30 30 31 30 29 31 31 31
27 26 25 24 25 24 24 24 24 24 25 25 25 26 26 26 26 26 26 27 27 26 26 26 26 27 27 27 28 29 29 29 29 29 30 30 31 31 31 31 31 31 32
26 25 25 25 25 25 24 24 24 24 24 24 24 25 25 26 26 25 26 27 27 27 28 26 26 27 27 28 28 28 29 30 30 30 31 31 31 32 32 33 32 32 33
24 25 25 25 25 25 24 24 24 24 24 24 25 25 25 25 25 25 26 26 27 27 28 28 28 28 28 27 28 28 29 30 31 32 32 32 33 32 33 34 34 34 34
25 25 25 25 25 24 23 23 23 24 24 24 24 25 25 25 25 24 25 26 26 27 28 28 29 29 29 29 30 30 29 31 32 33 33 33 33 33 33 34 34 35 35
23 23 24 23 23 23 23 23 23 24 24 24 25 26 26 25 25 25 25 25 26 27 28 29 30 31 31 31 31 31 31 31 32 33 33 34 34 34 35 35 36 36 36
23 23 23 23 22 22 23 23 24 24 24 24 25 26 26 26 26 26 26 26 26 27 28 29 30 31 32 31 31 30 32 32 33 33 34 35 35 36 36 37 37 37 37
22 22 22 22 22 23 23 24 25 25 25 25 25 25 26 27 27 26 26 26 26 26 27 29 30 31 31 32 32 33 33 34 34 34 35 36 36 36 37 38 38 38 38
22 22 22 23 23 23 24 24 24 24 25 25 25 25 26 27 27 27 26 25 25 26 27 28 29 30 31 32 33 33 34 34 35 35 35 36 37 38 38 38 38 38 39
22 22 22 22 23 23 23 23 24 25 26 26 26 26 26 27 27 27 26 25 25 25 26 26 28 29 30 31 32 33 33 34 35 35 35 36 37 39 40 39 39 40 39
21 21 21 21 22 23 22 23 24 25 26 26 27 27 27 27 27 27 26 25 25 25 26 28 29 29 30 31 32 33 33 33 35 35 35 36 37 38 39 40 40 41 41
19 20 21 21 22 22 22 22 23 24 25 25 26 26 26 26 26 25 25 25 26 26 27 28 29 29 30 30 32 33 33 33 34 35 35 36 37 37 39 39 40 40 41
19 19 20 21 21 21 21 21 22 23 24 24 24 24 24 24 25 25 25 26 27 27 28 28 28 29 30 30 31 32 34 33 33 34 35 35 36 37 38 39 39 40 40
17 18 19 20 20 20 20 21 22 22 22 22 22 22 23 23 24 25 25 26 26 28 28 28 28 28 28 29 30 31 33 33 33 34 35 36 36 37 37 38 39 40 40
16 17 19 19 19 19 20 20 20 21 21 22 22 21 21 22 22 23 24 25 25 27 28 27 27 28 28 28 29 30 31 32 32 33 34 36 37 37 38 38 38 39 40
16 17 18 18 18 18 19 19 20 20 21 21 21 21 21 21 22 23 23 23 23 25 26 26 26 26 27 27 28 30 30 31 32 32 33 35 37 37 38 38 39 39 39
15 16 17 17 16 17 18 18 19 20 20 21 20 21 21 21 22 22 22 23 23 24 25 25 24 24 24 25 27 28 28 28 30 31 32 33 34 35 36 37 38 38 38
15 16 17 16 17 17 18 19 19 20 21 21 21 21 21 21 21 21 22 22 23 24 25 25 24 25 24 24 25 26 27 27 28 29 30 30 30 32 33 34 36 38 38
17 18 18 17 18 18 18 19 19 20 21 21 20 20 21 20 21 21 22 22 23 24 24 24 23 24 24 24 25 26 26 26 27 28 29 29 29 30 31 32 34 36 37
17 18 18 18 18 18 18 19 20 21 22 22 21 21 21 20 21 22 22 23 24 24 25 24 24 24 24 24 24 24 25 26 26 27 29 30 30 30 31 31 32 34 36
17 17 18 18 19 19 19 20 21 22 22 22 22 21 21 21 22 23 23 23 25 25 24 24 23 22 23 23 24 24 25 26 26 27 28 30 31 32 33 33 33 33 34
17 17 18 18 19 20 21 22 22 22 22 22 22 22 23 23 23 24 24 24 25 24 24 23 22 23 23 24 24 24 24 25 25 26 27 29 30 31 32 32 34 35 35
17 18 18 19 20 21 21 22 23 22 22 23 23 23 23 24 24 24 25 25 25 24 23 23 23 23 23 23 23 23 24 24 24 24 26 27 29 30 29 30 32 33 34
Wind_Direction
298 294 293 291 290 289 288 289 291 287 285 284 281 278 276 274 272 272 272 269 266 265 264 264 263 260 258 256 255 256 255 255 256 253 250 248 246 245 243 240 240 239 239
300 298 296 294 292 292 291 288 288 286 285 284 283 279 278 276 272 271 272 270 266 265 266 265 264 262 259 257 255 256 256 257 256 253 250 248 247 247 245 243 240 239 239
300 298 296 295 294 292 292 289 287 286 286 285 284 281 280 279 275 273 271 270 267 266 266 265 265 263 261 257 255 255 255 257 257 254 250 249 248 247 246 244 242 241 240
300 299 297 296 295 294 294 292 290 288 286 284 283 282 281 279 278 275 272 271 268 267 265 264 262 263 262 258 256 254 255 256 255 252 250 249 248 247 245 245 242 241 240
299 299 298 298 296 296 295 295 293 291 289 286 283 284 283 280 278 276 272 270 268 267 265 264 262 262 261 258 257 254 254 254 253 251 251 250 248 246 246 245 242 241 241
298 298 298 298 299 297 295 294 294 293 292 289 288 288 287 283 279 277 275 271 269 266 266 265 263 263 261 259 257 255 255 255 253 252 250 249 247 246 245 246 244 243 242
296 297 299 299 299 298 296 295 295 295 294 291 290 291 290 288 284 279 277 275 271 267 265 264 262 262 260 259 257 256 256 255 254 252 251 250 248 247 245 246 245 245 244
295 297 298 297 297 298 298 296 296 298 296 293 292 293 291 290 288 283 279 278 274 270 266 264 263 262 261 261 259 258 259 257 254 252 251 250 249 247 245 245 245 245 244
295 296 296 296 297 297 297 297 298 298 297 295 294 294 294 291 286 285 283 280 276 271 268 266 264 263 262 260 260 259 258 258 255 253 252 251 249 248 246 246 245 244 244
293 295 294 296 297 298 299 299 299 299 296 295 295 294 293 292 290 286 284 281 278 274 270 268 266 265 263 262 260 259 258 257 255 253 252 251 250 249 247 247 246 246 245
296 295 295 295 298 299 299 300 299 299 296 295 295 294 293 293 293 291 287 283 279 276 274 272 270 267 264 263 262 261 260 259 257 255 253 252 251 250 248 248 247 247 245
295 297 297 298 300 301 300 300 299 298 296 296 295 294 294 294 293 292 288 284 281 278 276 276 273 269 266 265 264 263 261 261 259 259 257 254 252 250 249 248 247 247 247
297 298 300 301 302 302 302 300 300 299 297 295 295 295 295 294 292 291 289 287 284 280 278 277 275 273 270 267 266 264 263 262 261 259 257 255 252 249 248 247 247 246 246
300 301 302 304 303 303 303 301 300 301 299 297 296 296 295 294 292 291 290 288 285 282 280 279 277 275 273 270 267 265 264 264 262 260 258 255 253 251 249 247 247 246 246
301 302 303 303 305 304 304 303 302 302 301 299 298 298 296 295 293 291 290 287 286 284 282 282 280 276 274 272 269 266 265 266 264 261 258 255 253 251 249 248 247 247 246
303 303 303 305 307 307 306 304 303 303 304 303 301 299 297 296 295 293 291 288 285 284 284 284 282 279 277 273 271 269 266 267 265 263 260 257 254 252 250 249 247 247 247
306 306 307 310 310 310 309 308 307 307 308 306 303 300 299 300 299 297 294 292 289 287 285 285 283 281 279 275 273 272 270 267 266 264 261 259 257 254 253 251 248 247 248
312 311 310 312 313 315 315 315 312 310 309 307 304 302 302 304 304 302 299 295 293 291 290 287 285 281 279 276 275 274 272 268 266 265 262 260 259 256 254 253 250 248 248
317 316 317 317 316 318 319 319 318 314 313 312 309 305 304 305 305 303 302 298 297 296 294 291 287 284 281 279 277 276 274 271 268 266 262 259 257 256 255 254 252 249 247
326 326 325 323 321 321 323 323 322 322 319 317 314 310 309 308 306 306 304 301 300 299 295 292 289 285 283 280 277 276 274 271 268 265 263 259 256 255 254 254 252 250 249
331 330 330 329 326 325 325 324 324 326 324 320 316 314 312 311 311 310 308 306 304 302 299 295 292 288 286 283 278 276 275 274 270 267 265 262 257 254 253 252 251 250 251
332 332 331 330 330 331 329 329 329 329 326 323 321 318 315 313 312 313 312 310 309 307 304 299 295 291 288 287 284 279 277 275 273 269 267 264 261 258 256 253 251 250 250
337 338 338 337 338 337 335 334 333 332 329 327 325 322 319 318 316 315 313 313 312 309 306 304 299 295 291 291 289 285 281 278 276 273 270 268 265 262 257 256 254 252 251
338 337 340 341 340 340 338 337 335 334 333 332 330 328 325 325 323 321 319 316 315 312 309 306 302 299 295 292 291 288 284 280 278 275 273 269 268 266 261 258 256 255 253
339 340 341 342 341 341 340 340 339 338 336 335 334 332 328 325 324 322 319 318 317 314 311 308 304 301 299 296 294 290 288 283 279 277 275 273 269 267 263 259 256 255 255
341 341 341 341 341 341 341 340 339 338 337 336 334 332 328 326 326 325 322 320 319 316 313 310 306 303 301 298 295 292 290 287 283 281 278 274 271 269 266 260 257 255 255
Height
5815 5813 5812 5811 5809 5808 5807 5806 5806 5805 5805 5805 5805 5805 5804 5804 5804 5805 5805 5806 5806 5806 5807 5807 5808 5810 5811 5813 5814 5816 5817 5819 5820 5822 5823 5825 5827 5830 5832 5834 5836 5839 5842
5810 5808 5806 5805 5804 5802 5801 5801 5800 5799 5798 5799 5799 5798 5798 5798 5798 5798 5799 5799 5799 5800 5801 5801 5802 5803 5805 5806 5808 5809 5811 5812 5814 5815 5817 5819 5821 5824 5826 5828 5831 5833 5836
5805 5803 5801 5799 5798 5796 5795 5795 5794 5793 5793 5793 5793 5792 5792 5792 5791 5791 5792 5792 5793 5794 5794 5795 5796 5797 5798 5799 5801 5802 5804 5805 5807 5809 5811 5813 5815 5817 5819 5822 5825 5827 5830
5799 5797 5795 5793 5792 5790 5790 5789 5788 5787 5787 5786 5786 5786 5785 5785 5784 5784 5785 5785 5786 5787 5787 5788 5789 5790 5791 5792 5794 5795 5797 5798 5800 5802 5804 5806 5808 5810 5813 5815 5818 5821 5824
5794 5792 5790 5788 5786 5785 5785 5784 5783 5782 5781 5780 5779 5779 5778 5778 5777 5777 5777 5778 5779 5779 5780 5781 5781 5782 5784 5785 5786 5788 5789 5791 5793 5795 5796 5798 5801 5803 5805 5808 5811 5814 5817
5788 5786 5785 5783 5781 5780 5780 5779 5778 5776 5776 5774 5773 5773 5772 5771 5771 5770 5770 5770 5771 5771 5772 5773 5774 5775 5776 5777 5779 5780 5782 5783 5785 5787 5789 5791 5793 5796 5798 5801 5804 5807 5810
5783 5781 5780 5778 5777 5776 5775 5774 5773 5771 5770 5769 5768 5767 5766 5765 5764 5763 5763 5762 5763 5764 5764 5766 5767 5767 5769 5770 5771 5772 5774 5775 5777 5779 5781 5783 5785 5788 5790 5793 5796 5799 5802
5778 5776 5775 5773 5772 5770 5769 5769 5767 5766 5764 5763 5762 5760 5760 5759 5757 5756 5755 5755 5755 5755 5756 5757 5758 5759 5761 5762 5763 5764 5765 5767 5768 5770 5772 5774 5777 5779 5782 5785 5788 5791 5794
5773 5771 5770 5768 5766 5765 5764 5763 5762 5760 5759 5757 5755 5754 5753 5752 5751 5750 5748 5747 5747 5747 5748 5749 5750 5751 5752 5753 5755 5756 5757 5758 5759 5761 5763 5765 5768 5771 5774 5776 5779 5782 5785
5768 5766 5765 5763 5761 5760 5759 5758 5756 5754 5753 5751 5749 5747 5746 5744 5743 5742 5741 5739 5738 5738 5739 5740 5741 5742 5743 5744 5746 5746 5748 5749 5750 5752 5754 5756 5758 5761 5764 5767 5770 5773 5776
5763 5761 5760 5758 5756 5755 5753 5752 5750 5748 5746 5745 5743 5741 5739 5737 5735 5734 5733 5732 5731 5731 5731 5731 5732 5733 5733 5735 5737 5737 5738 5739 5741 5742 5744 5746 5748 5751 5754 5757 5760 5763 5766
5757 5756 5754 5752 5751 5749 5747 5745 5744 5742 5740 5738 5736 5734 5732 5730 5728 5726 5725 5724 5724 5723 5723 5723 5723 5723 5724 5725 5726 5727 5728 5729 5730 5732 5734 5736 5738 5741 5744 5747 5750 5753 5756
5751 5750 5748 5746 5744 5743 5741 5739 5737 5736 5734 5731 5729 5727 5725 5723 5721 5719 5718 5717 5716 5715 5715 5714 5714 5714 5714 5715 5716 5717 5718 5719 5720 5721 5723 5725 5727 5729 5733 5736 5739 5743 5746
5746 5744 5742 5740 5738 5736 5734 5733 5731 5729 5726 5724 5721 5719 5717 5715 5713 5711 5710 5709 5708 5708 5707 5706 5705 5705 5705 5705 5706 5706 5707 5707 5709 5710 5712 5714 5716 5718 5721 5725 5728 5732 5735
5741 5739 5737 5735 5733 5730 5728 5726 5724 5722 5719 5717 5714 5712 5710 5707 5705 5704 5702 5701 5701 5699 5699 5698 5696 5696 5695 5695 5695 5696 5696 5697 5698 5699 5701 5703 5705 5708 5710 5714 5717 5720 5724
5736 5734 5732 5730 5727 5725 5722 5720 5718 5715 5713 5710 5707 5705 5703 5701 5699 5697 5695 5694 5692 5691 5690 5689 5688 5687 5686 5686 5685 5685 5686 5687 5688 5689 5690 5692 5694 5696 5699 5702 5706 5709 5713
5731 5729 5727 5724 5722 5719 5717 5714 5711 5709 5707 5704 5701 5699 5697 5694 5692 5690 5688 5686 5684 5683 5681 5680 5678 5677 5677 5676 5675 5675 5675 5676 5677 5678 5679 5681 5683 5685 5688 5691 5694 5698 5701
5727 5725 5722 5719 5716 5714 5711 5709 5706 5703 5701 5698 5695 5693 5690 5688 5685 5683 5680 5678 5677 5675 5673 5671 5670 5668 5667 5666 5666 5665 5665 5666 5666 5667 5668 5670 5672 5674 5677 5680 5683 5686 5690
5723 5721 5718 5715 5712 5710 5707 5704 5701 5698 5695 5692 5689 5687 5684 5681 5679 5676 5674 5672 5669 5667 5665 5663 5661 5660 5658 5657 5657 5656 5656 5656 5656 5656 5657 5659 5660 5663 5665 5668 5671 5674 5678
5720 5718 5715 5712 5709 5706 5703 5700 5697 5694 5691 5687 5684 5681 5678 5676 5673 5670 5668 5665 5662 5659 5657 5655 5653 5651 5650 5649 5648 5647 5647 5647 5646 5646 5647 5648 5650 5652 5654 5657 5660 5663 5666
5718 5715 5712 5709 5706 5703 5700 5697 5693 5690 5687 5683 5679 5676 5673 5670 5667 5665 5662 5659 5656 5653 5650 5647 5645 5643 5642 5640 5639 5639 5638 5638 5637 5637 5638 5639 5640 5642 5644 5646 5649 5652 5655
5716 5713 5709 5706 5703 5700 5697 5693 5690 5687 5683 5679 5675 5672 5669 5666 5663 5660 5656 5653 5650 5646 5643 5640 5638 5636 5634 5632 5631 5630 5629 5629 5629 5629 5629 5629 5630 5632 5633 5635 5638 5640 5643
5714 5711 5707 5704 5700 5697 5694 5690 5687 5683 5679 5675 5671 5668 5664 5661 5658 5654 5651 5648 5644 5640 5636 5633 5631 5628 5626 5625 5623 5622 5620 5620 5620 5619 5619 5620 5621 5622 5623 5625 5627 5629 5631
5713 5709 5706 5702 5698 5694 5691 5687 5684 5680 5676 5672 5668 5664 5660 5656 5653 5649 5646 5642 5638 5634 5630 5627 5624 5621 5619 5617 5615 5613 5612 5611 5611 5610 5609 5610 5611 5611 5612 5614 5616 5617 5619
5711 5707 5704 5700 5696 5692 5689 5685 5681 5676 5672 5668 5664 5660 5656 5652 5648 5644 5640 5636 5632 5627 5623 5619 5617 5614 5611 5609 5607 5605 5604 5603 5602 5601 5600 5600 5600 5601 5602 5603 5604 5605 5607
5709 5705 5702 5698 5694 5690 5686 5682 5677 5673 5669 5664 5660 5655 5651 5647 5642 5638 5634 5630 5626 5621 5617 5613 5610 5607 5604 5601 5599 5597 5595 5594 5593 5593 5591 5590 5590 5590 5591 5592 5593 5594 5595